owner,sensor,date,latitude,longitude,vertical_datum,wind_speed,wind_to_direction,wind_speed_of_gust,qcFlag 
NDBC,ioos:station:wmo:42056:1,2016-01-01T00:50:00Z,19.8020,-84.8570,5.0,6.0,80.0,8.0,'1111122,1111122,1111122' 
NDBC,ioos:station:wmo:42056:1,2016-01-01T01:50:00Z,19.8020,-84.8570,5.0,7.0,90.0,8.0,'1111122,1111122,1111122' 
NDBC,ioos:station:wmo:42056:1,2016-01-01T02:50:00Z,19.8020,-84.8570,5.0,6.0,80.0,7.0,'1111122,1111122,1111122' 
NDBC,ioos:station:wmo:42056:1,2016-01-01T03:50:00Z,19.8020,-84.8570,5.0,7.0,80.0,8.0,'1111122,1111122,1111122' 
NDBC,ioos:station:wmo:42056:1,2016-01-01T04:50:00Z,19.8020,-84.8570,5.0,7.0,90.0,9.0,'1111122,1111122,1111122' 
NDBC,ioos:station:wmo:42056:1,2016-01-01T05:50:00Z,19.8020,-84.8570,5.0,7.0,90.0,9.0,'1111122,1111122,1111122' 
NDBC,ioos:station:wmo:42056:1,2016-01-01T06:50:00Z,19.8020,-84.8570,5.0,7.0,90.0,8.0,'1111122,1111122,1111122' 
NDBC,ioos:station:wmo:42056:1,2016-01-01T07:50:00Z,19.8020,-84.8570,5.0,7.0,80.0,9.0,'1111122,1111122,1111122' 
NDBC,ioos:station:wmo:42056:1,2016-01-01T08:50:00Z,19.8020,-84.8570,5.0,6.0,80.0,8.0,'1111122,1111122,1111122' 
NDBC,ioos:station:wmo:42056:1,2016-01-01T09:50:00Z,19.8020,-84.8570,5.0,6.0,70.0,7.0,'1111122,1111122,1111122' 
NDBC,ioos:station:wmo:42056:1,2016-01-01T10:50:00Z,19.8020,-84.8570,5.0,6.0,80.0,7.0,'1111122,1111122,1111122' 
NDBC,ioos:station:wmo:42056:1,2016-01-01T11:50:00Z,19.8020,-84.8570,5.0,6.0,60.0,7.0,'1111122,1111122,1111122' 
NDBC,ioos:station:wmo:42056:1,2016-01-01T12:50:00Z,19.8020,-84.8570,5.0,6.0,60.0,7.0,'1111122,1111122,1111122' 
NDBC,ioos:station:wmo:42056:1,2016-01-01T13:50:00Z,19.8020,-84.8570,5.0,6.0,70.0,8.0,'1111122,1111122,1111122' 
NDBC,ioos:station:wmo:42056:1,2016-01-01T14:50:00Z,19.8020,-84.8570,5.0,6.0,70.0,7.0,'1111122,1111122,1111122' 
NDBC,ioos:station:wmo:42056:1,2016-01-01T15:50:00Z,19.8020,-84.8570,5.0,6.0,70.0,8.0,'1111122,1111122,1111122' 
NDBC,ioos:station:wmo:42056:1,2016-01-01T16:50:00Z,19.8020,-84.8570,5.0,6.0,70.0,7.0,'1111122,1111122,1111122' 
NDBC,ioos:station:wmo:42056:1,2016-01-01T17:50:00Z,19.8020,-84.8570,5.0,5.0,70.0,6.0,'1111122,1111122,1111122' 
NDBC,ioos:station:wmo:42056:1,2016-01-02T21:50:00Z,19.8020,-84.8570,5.0,5.0,70.0,7.0,'1111122,1111122,1111122' 
NDBC,ioos:station:wmo:42056:1,2016-01-02T22:50:00Z,19.8020,-84.8570,5.0,6.0,80.0,7.0,'1111122,1111122,1111122' 
NDBC,ioos:station:wmo:42056:1,2016-01-02T23:50:00Z,19.8020,-84.8570,5.0,6.0,60.0,7.0,'1111122,1111122,1111122' 
NDBC,ioos:station:wmo:42056:1,2016-01-03T00:50:00Z,19.8020,-84.8570,5.0,4.0,60.0,5.0,'1111122,1111122,1111122' 
NDBC,ioos:station:wmo:42056:1,2016-01-03T01:50:00Z,19.8020,-84.8570,5.0,5.0,80.0,6.0,'1111122,1111122,1111122' 
NDBC,ioos:station:wmo:42056:1,2016-01-03T02:50:00Z,19.8020,-84.8570,5.0,4.0,90.0,6.0,'1111122,1111122,1111122' 
NDBC,ioos:station:wmo:42056:1,2016-01-03T03:50:00Z,19.8020,-84.8570,5.0,4.0,90.0,5.0,'1111122,1111122,1111122' 
NDBC,ioos:station:wmo:42056:1,2016-01-03T04:50:00Z,19.8020,-84.8570,5.0,4.0,90.0,5.0,'1111122,1111122,1111122' 
NDBC,ioos:station:wmo:42056:1,2016-01-03T05:50:00Z,19.8020,-84.8570,5.0,5.0,100.0,6.0,'1111122,1111122,1111122' 
NDBC,ioos:station:wmo:42056:1,2016-01-03T06:50:00Z,19.8020,-84.8570,5.0,4.0,90.0,5.0,'1111122,1111122,1111122' 
NDBC,ioos:station:wmo:42056:1,2016-01-03T07:50:00Z,19.8020,-84.8570,5.0,4.0,100.0,5.0,'1111122,1111122,1111122' 
NDBC,ioos:station:wmo:42056:1,2016-01-03T08:50:00Z,19.8020,-84.8570,5.0,4.0,100.0,5.0,'1111122,1111122,1111122' 
NDBC,ioos:station:wmo:42056:1,2016-01-03T09:50:00Z,19.8020,-84.8570,5.0,3.0,120.0,4.0,'1111122,1111122,1111122' 
NDBC,ioos:station:wmo:42056:1,2016-01-03T10:50:00Z,19.8020,-84.8570,5.0,6.0,270.0,8.0,'1111122,1111122,1111122' 
NDBC,ioos:station:wmo:42056:1,2016-01-03T11:50:00Z,19.8020,-84.8570,5.0,2.0,360.0,5.0,'1111122,1111122,1111122' 
NDBC,ioos:station:wmo:42056:1,2016-01-03T12:50:00Z,19.8020,-84.8570,5.0,5.0,110.0,6.0,'1111122,1111122,1111122' 
NDBC,ioos:station:wmo:42056:1,2016-01-03T13:50:00Z,19.8020,-84.8570,5.0,2.0,100.0,3.0,'1111122,1111122,1111122' 
NDBC,ioos:station:wmo:42056:1,2016-01-03T14:50:00Z,19.8020,-84.8570,5.0,2.0,130.0,3.0,'1111122,1111122,1111122' 
NDBC,ioos:station:wmo:42056:1,2016-01-03T15:50:00Z,19.8020,-84.8570,5.0,2.0,140.0,3.0,'1111122,1111122,1111122' 
NDBC,ioos:station:wmo:42056:1,2016-01-03T16:50:00Z,19.8020,-84.8570,5.0,3.0,160.0,3.0,'1111122,1111122,1111122' 
NDBC,ioos:station:wmo:42056:1,2016-01-03T17:50:00Z,19.8020,-84.8570,5.0,3.0,180.0,4.0,'1111122,1111122,1111122' 
NDBC,ioos:station:wmo:42056:1,2016-01-03T18:50:00Z,19.8020,-84.8570,5.0,3.0,170.0,3.0,'1111122,1111122,1111122' 
NDBC,ioos:station:wmo:42056:1,2016-01-03T19:50:00Z,19.8020,-84.8570,5.0,3.0,160.0,4.0,'1111122,1111122,1111122' 
NDBC,ioos:station:wmo:42056:1,2016-01-03T20:50:00Z,19.8020,-84.8570,5.0,3.0,180.0,5.0,'1111122,1111122,1111122' 
NDBC,ioos:station:wmo:42056:1,2016-01-03T21:50:00Z,19.8020,-84.8570,5.0,4.0,180.0,5.0,'1111122,1111122,1111122' 
NDBC,ioos:station:wmo:42056:1,2016-01-03T22:50:00Z,19.8020,-84.8570,5.0,4.0,180.0,6.0,'1111122,1111122,1111122' 
NDBC,ioos:station:wmo:42056:1,2016-01-03T23:50:00Z,19.8020,-84.8570,5.0,4.0,200.0,5.0,'1111122,1111122,1111122' 
NDBC,ioos:station:wmo:42056:1,2016-01-04T00:50:00Z,19.8020,-84.8570,5.0,4.0,220.0,5.0,'1111122,1111122,1111122' 
NDBC,ioos:station:wmo:42056:1,2016-01-04T01:50:00Z,19.8020,-84.8570,5.0,4.0,240.0,5.0,'1111122,1111122,1111122' 
NDBC,ioos:station:wmo:42056:1,2016-01-04T02:50:00Z,19.8020,-84.8570,5.0,3.0,210.0,4.0,'1111122,1111122,1111122' 
NDBC,ioos:station:wmo:42056:1,2016-01-04T03:50:00Z,19.8020,-84.8570,5.0,4.0,190.0,5.0,'1111122,1111122,1111122' 
NDBC,ioos:station:wmo:42056:1,2016-01-04T04:50:00Z,19.8020,-84.8570,5.0,6.0,190.0,7.0,'1111122,1111122,1111122' 
NDBC,ioos:station:wmo:42056:1,2016-01-04T05:50:00Z,19.8020,-84.8570,5.0,6.0,210.0,7.0,'1111122,1111122,1111122' 
NDBC,ioos:station:wmo:42056:1,2016-01-04T06:50:00Z,19.8020,-84.8570,5.0,6.0,200.0,7.0,'1111122,1111122,1111122' 
NDBC,ioos:station:wmo:42056:1,2016-01-04T07:50:00Z,19.8020,-84.8570,5.0,6.0,190.0,7.0,'1111122,1111122,1111122' 
NDBC,ioos:station:wmo:42056:1,2016-01-04T08:50:00Z,19.8020,-84.8570,5.0,6.0,190.0,8.0,'1111122,1111122,1111122' 
NDBC,ioos:station:wmo:42056:1,2016-01-04T09:50:00Z,19.8020,-84.8570,5.0,10.0,230.0,12.0,'1111122,1111122,1111122' 
NDBC,ioos:station:wmo:42056:1,2016-01-04T10:50:00Z,19.8020,-84.8570,5.0,8.0,250.0,10.0,'1111122,1111122,1111122' 
NDBC,ioos:station:wmo:42056:1,2016-01-04T11:50:00Z,19.8020,-84.8570,5.0,10.0,290.0,12.0,'1111122,1111122,1111122' 
NDBC,ioos:station:wmo:42056:1,2016-01-04T12:50:00Z,19.8020,-84.8570,5.0,7.0,260.0,9.0,'1111122,1111122,1111122' 
NDBC,ioos:station:wmo:42056:1,2016-01-04T13:50:00Z,19.8020,-84.8570,5.0,6.0,260.0,7.0,'1111122,1111122,1111122' 
NDBC,ioos:station:wmo:42056:1,2016-01-04T14:50:00Z,19.8020,-84.8570,5.0,7.0,260.0,8.0,'1111122,1111122,1111122' 
NDBC,ioos:station:wmo:42056:1,2016-01-04T15:50:00Z,19.8020,-84.8570,5.0,7.0,300.0,9.0,'1111122,1111122,1111122' 
NDBC,ioos:station:wmo:42056:1,2016-01-04T16:50:00Z,19.8020,-84.8570,5.0,4.0,270.0,6.0,'1111122,1111122,1111122' 
NDBC,ioos:station:wmo:42056:1,2016-01-04T17:50:00Z,19.8020,-84.8570,5.0,8.0,330.0,10.0,'1111122,1111122,1111122' 
NDBC,ioos:station:wmo:42056:1,2016-01-04T18:50:00Z,19.8020,-84.8570,5.0,7.0,330.0,8.0,'1111122,1111122,1111122' 
NDBC,ioos:station:wmo:42056:1,2016-01-04T19:50:00Z,19.8020,-84.8570,5.0,8.0,330.0,9.0,'1111122,1111122,1111122' 
NDBC,ioos:station:wmo:42056:1,2016-01-04T20:50:00Z,19.8020,-84.8570,5.0,8.0,340.0,10.0,'1111122,1111122,1111122' 
NDBC,ioos:station:wmo:42056:1,2016-01-04T21:50:00Z,19.8020,-84.8570,5.0,7.0,350.0,9.0,'1111122,1111122,1111122' 
NDBC,ioos:station:wmo:42056:1,2016-01-04T22:50:00Z,19.8020,-84.8570,5.0,8.0,350.0,9.0,'1111122,1111122,1111122' 
NDBC,ioos:station:wmo:42056:1,2016-01-04T23:50:00Z,19.8020,-84.8570,5.0,9.0,10.0,11.0,'1111122,1111122,1111122' 
NDBC,ioos:station:wmo:42056:1,2016-01-05T00:50:00Z,19.8020,-84.8570,5.0,11.0,10.0,13.0,'1111122,1111122,1111122' 
NDBC,ioos:station:wmo:42056:1,2016-01-05T01:50:00Z,19.8020,-84.8570,5.0,11.0,10.0,13.0,'1111122,1111122,1111122' 
NDBC,ioos:station:wmo:42056:1,2016-01-05T02:50:00Z,19.8020,-84.8570,5.0,12.0,10.0,14.0,'1111122,1111122,1111122' 
NDBC,ioos:station:wmo:42056:1,2016-01-05T03:50:00Z,19.8020,-84.8570,5.0,12.0,20.0,13.0,'1111122,1111122,1111122' 
NDBC,ioos:station:wmo:42056:1,2016-01-05T04:50:00Z,19.8020,-84.8570,5.0,10.0,20.0,13.0,'1111122,1111122,1111122' 
NDBC,ioos:station:wmo:42056:1,2016-01-05T05:50:00Z,19.8020,-84.8570,5.0,9.0,20.0,10.0,'1111122,1111122,1111122' 
NDBC,ioos:station:wmo:42056:1,2016-01-05T06:50:00Z,19.8020,-84.8570,5.0,8.0,20.0,10.0,'1111122,1111122,1111122' 
NDBC,ioos:station:wmo:42056:1,2016-01-05T07:50:00Z,19.8020,-84.8570,5.0,8.0,30.0,9.0,'1111122,1111122,1111122' 
NDBC,ioos:station:wmo:42056:1,2016-01-05T09:50:00Z,19.8020,-84.8570,5.0,7.0,30.0,9.0,'1111122,1111122,1111122' 
NDBC,ioos:station:wmo:42056:1,2016-01-05T10:50:00Z,19.8020,-84.8570,5.0,6.0,30.0,7.0,'1111122,1111122,1111122' 
NDBC,ioos:station:wmo:42056:1,2016-01-05T11:50:00Z,19.8020,-84.8570,5.0,6.0,40.0,8.0,'1111122,1111122,1111122' 
NDBC,ioos:station:wmo:42056:1,2016-01-05T12:50:00Z,19.8020,-84.8570,5.0,5.0,40.0,7.0,'1111122,1111122,1111122' 
NDBC,ioos:station:wmo:42056:1,2016-01-05T13:50:00Z,19.8020,-84.8570,5.0,5.0,50.0,7.0,'1111122,1111122,1111122' 
NDBC,ioos:station:wmo:42056:1,2016-01-05T14:50:00Z,19.8020,-84.8570,5.0,6.0,50.0,7.0,'1111122,1111122,1111122' 
NDBC,ioos:station:wmo:42056:1,2016-01-05T15:50:00Z,19.8020,-84.8570,5.0,6.0,40.0,7.0,'1111122,1111122,1111122' 
NDBC,ioos:station:wmo:42056:1,2016-01-06T14:50:00Z,19.8020,-84.8570,5.0,1.0,10.0,2.0,'1111122,1111122,1111122' 
NDBC,ioos:station:wmo:42056:1,2016-01-06T15:50:00Z,19.8020,-84.8570,5.0,2.0,10.0,3.0,'1111122,1111122,1111122' 
NDBC,ioos:station:wmo:42056:1,2016-01-06T16:50:00Z,19.8020,-84.8570,5.0,1.0,340.0,2.0,'1111122,1111122,1111122' 
NDBC,ioos:station:wmo:42056:1,2016-01-06T17:50:00Z,19.8020,-84.8570,5.0,1.0,50.0,2.0,'1111122,1111122,1111122' 
NDBC,ioos:station:wmo:42056:1,2016-01-06T18:50:00Z,19.8020,-84.8570,5.0,2.0,340.0,2.0,'1111122,1111122,1111122' 
NDBC,ioos:station:wmo:42056:1,2016-01-06T19:50:00Z,19.8020,-84.8570,5.0,2.0,340.0,3.0,'1111122,1111122,1111122' 
NDBC,ioos:station:wmo:42056:1,2016-01-06T20:50:00Z,19.8020,-84.8570,5.0,3.0,340.0,5.0,'1111122,1111122,1111122' 
NDBC,ioos:station:wmo:42056:1,2016-01-06T21:50:00Z,19.8020,-84.8570,5.0,4.0,360.0,5.0,'1111122,1111122,1111122' 
NDBC,ioos:station:wmo:42056:1,2016-01-06T22:50:00Z,19.8020,-84.8570,5.0,3.0,10.0,5.0,'1111122,1111122,1111122' 
NDBC,ioos:station:wmo:42056:1,2016-01-06T23:50:00Z,19.8020,-84.8570,5.0,4.0,30.0,5.0,'1111122,1111122,1111122' 
NDBC,ioos:station:wmo:42056:1,2016-01-07T00:50:00Z,19.8020,-84.8570,5.0,4.0,40.0,5.0,'1111122,1111122,1111122' 
NDBC,ioos:station:wmo:42056:1,2016-01-07T01:50:00Z,19.8020,-84.8570,5.0,4.0,50.0,5.0,'1111122,1111122,1111122' 
NDBC,ioos:station:wmo:42056:1,2016-01-07T02:50:00Z,19.8020,-84.8570,5.0,3.0,50.0,4.0,'1111122,1111122,1111122' 
NDBC,ioos:station:wmo:42056:1,2016-01-07T03:50:00Z,19.8020,-84.8570,5.0,4.0,50.0,5.0,'1111122,1111122,1111122' 
NDBC,ioos:station:wmo:42056:1,2016-01-07T04:50:00Z,19.8020,-84.8570,5.0,4.0,50.0,7.0,'1111122,1111122,1111122' 
NDBC,ioos:station:wmo:42056:1,2016-01-07T05:50:00Z,19.8020,-84.8570,5.0,4.0,50.0,5.0,'1111122,1111122,1111122' 
NDBC,ioos:station:wmo:42056:1,2016-01-07T06:50:00Z,19.8020,-84.8570,5.0,3.0,80.0,5.0,'1111122,1111122,1111122' 
NDBC,ioos:station:wmo:42056:1,2016-01-07T07:50:00Z,19.8020,-84.8570,5.0,4.0,90.0,4.0,'1111122,1111122,1111122' 
NDBC,ioos:station:wmo:42056:1,2016-01-07T08:50:00Z,19.8020,-84.8570,5.0,4.0,80.0,4.0,'1111122,1111122,1111122' 
NDBC,ioos:station:wmo:42056:1,2016-01-07T09:50:00Z,19.8020,-84.8570,5.0,4.0,90.0,5.0,'1111122,1111122,1111122' 
NDBC,ioos:station:wmo:42056:1,2016-01-07T10:50:00Z,19.8020,-84.8570,5.0,4.0,80.0,5.0,'1111122,1111122,1111122' 
NDBC,ioos:station:wmo:42056:1,2016-01-07T11:50:00Z,19.8020,-84.8570,5.0,4.0,80.0,5.0,'1111122,1111122,1111122' 
NDBC,ioos:station:wmo:42056:1,2016-01-07T12:50:00Z,19.8020,-84.8570,5.0,4.0,100.0,5.0,'1111122,1111122,1111122' 
NDBC,ioos:station:wmo:42056:1,2016-01-07T13:50:00Z,19.8020,-84.8570,5.0,4.0,100.0,5.0,'1111122,1111122,1111122' 
NDBC,ioos:station:wmo:42056:1,2016-01-07T14:50:00Z,19.8020,-84.8570,5.0,4.0,110.0,5.0,'1111122,1111122,1111122' 
NDBC,ioos:station:wmo:42056:1,2016-01-07T15:50:00Z,19.8020,-84.8570,5.0,4.0,110.0,6.0,'1111122,1111122,1111122' 
NDBC,ioos:station:wmo:42056:1,2016-01-07T16:50:00Z,19.8020,-84.8570,5.0,5.0,130.0,7.0,'1111122,1111122,1111122' 
NDBC,ioos:station:wmo:42056:1,2016-01-07T17:50:00Z,19.8020,-84.8570,5.0,6.0,140.0,7.0,'1111122,1111122,1111122' 
NDBC,ioos:station:wmo:42056:1,2016-01-07T18:50:00Z,19.8020,-84.8570,5.0,7.0,140.0,8.0,'1111122,1111122,1111122' 
NDBC,ioos:station:wmo:42056:1,2016-01-07T19:50:00Z,19.8020,-84.8570,5.0,7.0,150.0,9.0,'1111122,1111122,1111122' 
NDBC,ioos:station:wmo:42056:1,2016-01-07T20:50:00Z,19.8020,-84.8570,5.0,7.0,140.0,9.0,'1111122,1111122,1111122' 
NDBC,ioos:station:wmo:42056:1,2016-01-07T21:50:00Z,19.8020,-84.8570,5.0,8.0,150.0,9.0,'1111122,1111122,1111122' 
NDBC,ioos:station:wmo:42056:1,2016-01-07T22:50:00Z,19.8020,-84.8570,5.0,7.0,150.0,9.0,'1111122,1111122,1111122' 
NDBC,ioos:station:wmo:42056:1,2016-01-07T23:50:00Z,19.8020,-84.8570,5.0,5.0,140.0,6.0,'1111122,1111122,1111122' 
NDBC,ioos:station:wmo:42056:1,2016-01-08T00:50:00Z,19.8020,-84.8570,5.0,6.0,140.0,7.0,'1111122,1111122,1111122' 
NDBC,ioos:station:wmo:42056:1,2016-01-08T01:50:00Z,19.8020,-84.8570,5.0,6.0,150.0,7.0,'1111122,1111122,1111122' 
NDBC,ioos:station:wmo:42056:1,2016-01-08T02:50:00Z,19.8020,-84.8570,5.0,6.0,150.0,7.0,'1111122,1111122,1111122' 
NDBC,ioos:station:wmo:42056:1,2016-01-08T03:50:00Z,19.8020,-84.8570,5.0,5.0,150.0,7.0,'1111122,1111122,1111122' 
NDBC,ioos:station:wmo:42056:1,2016-01-08T04:50:00Z,19.8020,-84.8570,5.0,7.0,150.0,8.0,'1111122,1111122,1111122' 
NDBC,ioos:station:wmo:42056:1,2016-01-08T05:50:00Z,19.8020,-84.8570,5.0,8.0,150.0,9.0,'1111122,1111122,1111122' 
NDBC,ioos:station:wmo:42056:1,2016-01-08T06:50:00Z,19.8020,-84.8570,5.0,8.0,160.0,9.0,'1111122,1111122,1111122' 
NDBC,ioos:station:wmo:42056:1,2016-01-08T07:50:00Z,19.8020,-84.8570,5.0,7.0,160.0,8.0,'1111122,1111122,1111122' 
NDBC,ioos:station:wmo:42056:1,2016-01-08T08:50:00Z,19.8020,-84.8570,5.0,6.0,160.0,8.0,'1111122,1111122,1111122' 
NDBC,ioos:station:wmo:42056:1,2016-01-08T09:50:00Z,19.8020,-84.8570,5.0,6.0,160.0,7.0,'1111122,1111122,1111122' 
NDBC,ioos:station:wmo:42056:1,2016-01-08T10:50:00Z,19.8020,-84.8570,5.0,6.0,160.0,8.0,'1111122,1111122,1111122' 
NDBC,ioos:station:wmo:42056:1,2016-01-08T11:50:00Z,19.8020,-84.8570,5.0,7.0,160.0,8.0,'1111122,1111122,1111122' 
NDBC,ioos:station:wmo:42056:1,2016-01-08T12:50:00Z,19.8020,-84.8570,5.0,7.0,150.0,8.0,'1111122,1111122,1111122' 
NDBC,ioos:station:wmo:42056:1,2016-01-08T13:50:00Z,19.8020,-84.8570,5.0,7.0,160.0,9.0,'1111122,1111122,1111122' 
NDBC,ioos:station:wmo:42056:1,2016-01-08T14:50:00Z,19.8020,-84.8570,5.0,7.0,160.0,8.0,'1111122,1111122,1111122' 
NDBC,ioos:station:wmo:42056:1,2016-01-08T15:50:00Z,19.8020,-84.8570,5.0,7.0,170.0,8.0,'1111122,1111122,1111122' 
NDBC,ioos:station:wmo:42056:1,2016-01-08T16:50:00Z,19.8020,-84.8570,5.0,7.0,170.0,9.0,'1111122,1111122,1111122' 
NDBC,ioos:station:wmo:42056:1,2016-01-08T17:50:00Z,19.8020,-84.8570,5.0,7.0,170.0,9.0,'1111122,1111122,1111122' 
NDBC,ioos:station:wmo:42056:1,2016-01-08T18:50:00Z,19.8020,-84.8570,5.0,7.0,170.0,8.0,'1111122,1111122,1111122' 
NDBC,ioos:station:wmo:42056:1,2016-01-08T19:50:00Z,19.8020,-84.8570,5.0,6.0,170.0,7.0,'1111122,1111122,1111122' 
NDBC,ioos:station:wmo:42056:1,2016-01-08T20:50:00Z,19.8020,-84.8570,5.0,6.0,170.0,8.0,'1111122,1111122,1111122' 
NDBC,ioos:station:wmo:42056:1,2016-01-08T21:50:00Z,19.8020,-84.8570,5.0,6.0,150.0,7.0,'1111122,1111122,1111122' 
NDBC,ioos:station:wmo:42056:1,2016-01-08T22:50:00Z,19.8020,-84.8570,5.0,7.0,150.0,7.0,'1111122,1111122,1111122' 
NDBC,ioos:station:wmo:42056:1,2016-01-08T23:50:00Z,19.8020,-84.8570,5.0,6.0,150.0,7.0,'1111122,1111122,1111122' 
NDBC,ioos:station:wmo:42056:1,2016-01-09T00:50:00Z,19.8020,-84.8570,5.0,7.0,150.0,8.0,'1111122,1111122,1111122' 
NDBC,ioos:station:wmo:42056:1,2016-01-09T01:50:00Z,19.8020,-84.8570,5.0,7.0,150.0,9.0,'1111122,1111122,1111122' 
NDBC,ioos:station:wmo:42056:1,2016-01-09T02:50:00Z,19.8020,-84.8570,5.0,7.0,150.0,8.0,'1111122,1111122,1111122' 
NDBC,ioos:station:wmo:42056:1,2016-01-09T03:50:00Z,19.8020,-84.8570,5.0,6.0,150.0,7.0,'1111122,1111122,1111122' 
NDBC,ioos:station:wmo:42056:1,2016-01-09T04:50:00Z,19.8020,-84.8570,5.0,7.0,150.0,8.0,'1111122,1111122,1111122' 
NDBC,ioos:station:wmo:42056:1,2016-01-09T05:50:00Z,19.8020,-84.8570,5.0,7.0,150.0,8.0,'1111122,1111122,1111122' 
NDBC,ioos:station:wmo:42056:1,2016-01-09T06:50:00Z,19.8020,-84.8570,5.0,7.0,150.0,8.0,'1111122,1111122,1111122' 
NDBC,ioos:station:wmo:42056:1,2016-01-09T07:50:00Z,19.8020,-84.8570,5.0,6.0,140.0,7.0,'1111122,1111122,1111122' 
NDBC,ioos:station:wmo:42056:1,2016-01-09T08:50:00Z,19.8020,-84.8570,5.0,7.0,150.0,8.0,'1111122,1111122,1111122' 
NDBC,ioos:station:wmo:42056:1,2016-01-09T09:50:00Z,19.8020,-84.8570,5.0,8.0,140.0,9.0,'1111122,1111122,1111122' 
NDBC,ioos:station:wmo:42056:1,2016-01-09T10:50:00Z,19.8020,-84.8570,5.0,8.0,150.0,9.0,'1111122,1111122,1111122' 
NDBC,ioos:station:wmo:42056:1,2016-01-09T11:50:00Z,19.8020,-84.8570,5.0,8.0,150.0,9.0,'1111122,1111122,1111122' 
NDBC,ioos:station:wmo:42056:1,2016-01-09T12:50:00Z,19.8020,-84.8570,5.0,8.0,150.0,10.0,'1111122,1111122,1111122' 
NDBC,ioos:station:wmo:42056:1,2016-01-09T13:50:00Z,19.8020,-84.8570,5.0,9.0,150.0,10.0,'1111122,1111122,1111122' 
NDBC,ioos:station:wmo:42056:1,2016-01-09T14:50:00Z,19.8020,-84.8570,5.0,9.0,150.0,11.0,'1111122,1111122,1111122' 
NDBC,ioos:station:wmo:42056:1,2016-01-09T15:50:00Z,19.8020,-84.8570,5.0,10.0,150.0,12.0,'1111122,1111122,1111122' 
NDBC,ioos:station:wmo:42056:1,2016-01-09T16:50:00Z,19.8020,-84.8570,5.0,9.0,150.0,10.0,'1111122,1111122,1111122' 
NDBC,ioos:station:wmo:42056:1,2016-01-09T17:50:00Z,19.8020,-84.8570,5.0,8.0,150.0,10.0,'1111122,1111122,1111122' 
NDBC,ioos:station:wmo:42056:1,2016-01-09T18:50:00Z,19.8020,-84.8570,5.0,8.0,150.0,10.0,'1111122,1111122,1111122' 
NDBC,ioos:station:wmo:42056:1,2016-01-09T19:50:00Z,19.8020,-84.8570,5.0,8.0,150.0,9.0,'1111122,1111122,1111122' 
NDBC,ioos:station:wmo:42056:1,2016-01-09T20:50:00Z,19.8020,-84.8570,5.0,7.0,150.0,9.0,'1111122,1111122,1111122' 
NDBC,ioos:station:wmo:42056:1,2016-01-09T21:50:00Z,19.8020,-84.8570,5.0,7.0,160.0,8.0,'1111122,1111122,1111122' 
NDBC,ioos:station:wmo:42056:1,2016-01-09T22:50:00Z,19.8020,-84.8570,5.0,7.0,150.0,9.0,'1111122,1111122,1111122' 
NDBC,ioos:station:wmo:42056:1,2016-01-09T23:50:00Z,19.8020,-84.8570,5.0,7.0,150.0,8.0,'1111122,1111122,1111122' 
NDBC,ioos:station:wmo:42056:1,2016-01-10T00:50:00Z,19.8020,-84.8570,5.0,8.0,140.0,9.0,'1111122,1111122,1111122' 
NDBC,ioos:station:wmo:42056:1,2016-01-10T01:50:00Z,19.8020,-84.8570,5.0,7.0,150.0,8.0,'1111122,1111122,1111122' 
NDBC,ioos:station:wmo:42056:1,2016-01-10T02:50:00Z,19.8020,-84.8570,5.0,8.0,150.0,9.0,'1111122,1111122,1111122' 
NDBC,ioos:station:wmo:42056:1,2016-01-10T03:50:00Z,19.8020,-84.8570,5.0,8.0,150.0,9.0,'1111122,1111122,1111122' 
NDBC,ioos:station:wmo:42056:1,2016-01-10T04:50:00Z,19.8020,-84.8570,5.0,8.0,150.0,10.0,'1111122,1111122,1111122' 
NDBC,ioos:station:wmo:42056:1,2016-01-10T05:50:00Z,19.8020,-84.8570,5.0,8.0,150.0,10.0,'1111122,1111122,1111122' 
NDBC,ioos:station:wmo:42056:1,2016-01-10T06:50:00Z,19.8020,-84.8570,5.0,8.0,150.0,9.0,'1111122,1111122,1111122' 
NDBC,ioos:station:wmo:42056:1,2016-01-10T07:50:00Z,19.8020,-84.8570,5.0,8.0,150.0,9.0,'1111122,1111122,1111122' 
NDBC,ioos:station:wmo:42056:1,2016-01-10T08:50:00Z,19.8020,-84.8570,5.0,8.0,150.0,9.0,'1111122,1111122,1111122' 
NDBC,ioos:station:wmo:42056:1,2016-01-10T09:50:00Z,19.8020,-84.8570,5.0,7.0,150.0,8.0,'1111122,1111122,1111122' 
NDBC,ioos:station:wmo:42056:1,2016-01-10T10:50:00Z,19.8020,-84.8570,5.0,7.0,150.0,8.0,'1111122,1111122,1111122' 
NDBC,ioos:station:wmo:42056:1,2016-01-10T11:50:00Z,19.8020,-84.8570,5.0,6.0,160.0,7.0,'1111122,1111122,1111122' 
NDBC,ioos:station:wmo:42056:1,2016-01-10T12:50:00Z,19.8020,-84.8570,5.0,6.0,160.0,8.0,'1111122,1111122,1111122' 
NDBC,ioos:station:wmo:42056:1,2016-01-10T13:50:00Z,19.8020,-84.8570,5.0,5.0,160.0,6.0,'1111122,1111122,1111122' 
NDBC,ioos:station:wmo:42056:1,2016-01-10T14:50:00Z,19.8020,-84.8570,5.0,6.0,170.0,7.0,'1111122,1111122,1111122' 
NDBC,ioos:station:wmo:42056:1,2016-01-10T15:50:00Z,19.8020,-84.8570,5.0,5.0,170.0,6.0,'1111122,1111122,1111122' 
NDBC,ioos:station:wmo:42056:1,2016-01-10T17:50:00Z,19.8020,-84.8570,5.0,5.0,170.0,6.0,'1111122,1111122,1111122' 
NDBC,ioos:station:wmo:42056:1,2016-01-10T18:50:00Z,19.8020,-84.8570,5.0,4.0,180.0,5.0,'1111122,1111122,1111122' 
NDBC,ioos:station:wmo:42056:1,2016-01-10T19:50:00Z,19.8020,-84.8570,5.0,4.0,200.0,5.0,'1111122,1111122,1111122' 
NDBC,ioos:station:wmo:42056:1,2016-01-10T20:50:00Z,19.8020,-84.8570,5.0,4.0,190.0,5.0,'1111122,1111122,1111122' 
NDBC,ioos:station:wmo:42056:1,2016-01-10T21:50:00Z,19.8020,-84.8570,5.0,4.0,170.0,4.0,'1111122,1111122,1111122' 
NDBC,ioos:station:wmo:42056:1,2016-01-10T22:50:00Z,19.8020,-84.8570,5.0,3.0,180.0,3.0,'1111122,1111122,1111122' 
NDBC,ioos:station:wmo:42056:1,2016-01-10T23:50:00Z,19.8020,-84.8570,5.0,3.0,170.0,3.0,'1111122,1111122,1111122' 
NDBC,ioos:station:wmo:42056:1,2016-01-11T00:50:00Z,19.8020,-84.8570,5.0,3.0,150.0,3.0,'1111122,1111122,1111122' 
NDBC,ioos:station:wmo:42056:1,2016-01-11T01:50:00Z,19.8020,-84.8570,5.0,2.0,170.0,3.0,'1111122,1111122,1111122' 
NDBC,ioos:station:wmo:42056:1,2016-01-11T02:50:00Z,19.8020,-84.8570,5.0,3.0,140.0,4.0,'1111122,1111122,1111122' 
NDBC,ioos:station:wmo:42056:1,2016-01-11T03:50:00Z,19.8020,-84.8570,5.0,7.0,340.0,9.0,'1111122,1111122,1111122' 
NDBC,ioos:station:wmo:42056:1,2016-01-11T04:50:00Z,19.8020,-84.8570,5.0,5.0,330.0,6.0,'1111122,1111122,1111122' 
NDBC,ioos:station:wmo:42056:1,2016-01-11T05:50:00Z,19.8020,-84.8570,5.0,5.0,340.0,6.0,'1111122,1111122,1111122' 
NDBC,ioos:station:wmo:42056:1,2016-01-11T06:50:00Z,19.8020,-84.8570,5.0,3.0,340.0,4.0,'1111122,1111122,1111122' 
NDBC,ioos:station:wmo:42056:1,2016-01-11T07:50:00Z,19.8020,-84.8570,5.0,5.0,360.0,6.0,'1111122,1111122,1111122' 
NDBC,ioos:station:wmo:42056:1,2016-01-11T08:50:00Z,19.8020,-84.8570,5.0,5.0,10.0,7.0,'1111122,1111122,1111122' 
NDBC,ioos:station:wmo:42056:1,2016-01-11T09:50:00Z,19.8020,-84.8570,5.0,5.0,30.0,6.0,'1111122,1111122,1111122' 
NDBC,ioos:station:wmo:42056:1,2016-01-11T10:50:00Z,19.8020,-84.8570,5.0,4.0,60.0,5.0,'1111122,1111122,1111122' 
NDBC,ioos:station:wmo:42056:1,2016-01-11T11:50:00Z,19.8020,-84.8570,5.0,4.0,80.0,4.0,'1111122,1111122,1111122' 
NDBC,ioos:station:wmo:42056:1,2016-01-11T12:50:00Z,19.8020,-84.8570,5.0,4.0,110.0,5.0,'1111122,1111122,1111122' 
NDBC,ioos:station:wmo:42056:1,2016-01-11T13:50:00Z,19.8020,-84.8570,5.0,3.0,110.0,4.0,'1111122,1111122,1111122' 
NDBC,ioos:station:wmo:42056:1,2016-01-11T14:50:00Z,19.8020,-84.8570,5.0,3.0,120.0,4.0,'1111122,1111122,1111122' 
NDBC,ioos:station:wmo:42056:1,2016-01-11T15:50:00Z,19.8020,-84.8570,5.0,3.0,120.0,4.0,'1111122,1111122,1111122' 
NDBC,ioos:station:wmo:42056:1,2016-01-11T16:50:00Z,19.8020,-84.8570,5.0,4.0,140.0,4.0,'1111122,1111122,1111122' 
NDBC,ioos:station:wmo:42056:1,2016-01-11T17:50:00Z,19.8020,-84.8570,5.0,3.0,150.0,5.0,'1111122,1111122,1111122' 
NDBC,ioos:station:wmo:42056:1,2016-01-11T18:50:00Z,19.8020,-84.8570,5.0,4.0,150.0,5.0,'1111122,1111122,1111122' 
NDBC,ioos:station:wmo:42056:1,2016-01-11T19:50:00Z,19.8020,-84.8570,5.0,4.0,150.0,5.0,'1111122,1111122,1111122' 
NDBC,ioos:station:wmo:42056:1,2016-01-11T20:50:00Z,19.8020,-84.8570,5.0,4.0,130.0,5.0,'1111122,1111122,1111122' 
NDBC,ioos:station:wmo:42056:1,2016-01-11T21:50:00Z,19.8020,-84.8570,5.0,3.0,130.0,4.0,'1111122,1111122,1111122' 